timestamp,wind_dir_avg,wind_spd_max_dir,wind_spd_avg,wind_spd_gust,battery_voltage,lat,long
2017-10-31 00:00:00+00:00,210.0,211.0,8.13,9.14,12.7,47.59359,-54.27349
2017-10-31 00:10:00+00:00,204.0,204.0,9.62,10.85,12.6,47.59359,-54.27349
2017-10-31 00:20:00+00:00,214.0,212.0,10.76,12.03,12.7,47.59359,-54.27349
2017-10-31 00:30:00+00:00,213.0,214.0,9.2,10.52,12.7,47.59359,-54.27349
2017-10-31 00:40:00+00:00,197.0,196.0,9.39,11.37,12.7,47.59359,-54.27349
2017-10-31 00:50:00+00:00,198.0,197.0,10.24,11.67,12.7,47.59359,-54.27349
2017-10-31 01:00:00+00:00,196.0,195.0,8.73,9.8,12.6,47.59359,-54.27349
2017-10-31 01:10:00+00:00,191.0,191.0,9.76,10.91,12.6,47.59359,-54.27349
2017-10-31 01:20:00+00:00,195.0,195.0,9.56,10.97,12.7,47.59359,-54.27349
2017-10-31 01:30:00+00:00,208.0,209.0,8.26,9.85,12.7,47.59359,-54.27349
2017-10-31 01:40:00+00:00,216.0,217.0,10.31,11.57,12.7,47.59359,-54.27349
2017-10-31 01:50:00+00:00,200.0,198.0,8.53,9.6,12.7,47.59359,-54.27349
2017-10-31 02:00:00+00:00,195.0,197.0,9.19,9.7,12.6,47.59359,-54.27349
2017-10-31 02:10:00+00:00,191.0,198.0,8.56,9.45,12.6,47.59359,-54.27349
2017-10-31 02:20:00+00:00,195.0,195.0,7.33,8.14,12.7,47.59359,-54.27349
2017-10-31 02:30:00+00:00,196.0,194.0,8.15,9.11,12.7,47.59359,-54.27349
2017-10-31 02:40:00+00:00,200.0,205.0,6.01,6.77,12.7,47.59359,-54.27349
2017-10-31 02:50:00+00:00,195.0,191.0,7.47,8.25,12.7,47.59359,-54.27349
2017-10-31 03:00:00+00:00,190.0,189.0,7.54,8.5,12.6,47.59359,-54.27349
2017-10-31 03:10:00+00:00,197.0,195.0,7.15,8.02,12.6,47.59359,-54.27349
2017-10-31 03:20:00+00:00,198.0,196.0,7.26,7.96,12.6,47.59359,-54.27349
2017-10-31 03:30:00+00:00,208.0,206.0,6.62,7.28,12.6,47.59359,-54.27349
2017-10-31 03:40:00+00:00,211.0,211.0,5.86,7.62,12.7,47.59359,-54.27349
2017-10-31 03:50:00+00:00,211.0,216.0,3.72,4.16,12.7,47.59359,-54.27349
2017-10-31 04:00:00+00:00,161.0,163.0,4.14,5.05,12.6,47.59359,-54.27349
2017-10-31 04:10:00+00:00,163.0,157.0,2.56,3.05,12.6,47.59359,-54.27349
2017-10-31 04:20:00+00:00,135.0,141.0,1.25,1.56,12.6,47.59359,-54.27349
2017-10-31 04:30:00+00:00,101.0,97.0,2.59,3.3,12.6,47.59359,-54.27349
2017-10-31 04:40:00+00:00,98.0,80.0,2.53,3.36,12.7,47.59359,-54.27349
2017-10-31 04:50:00+00:00,66.0,57.0,1.69,2.29,12.7,47.59359,-54.27349
2017-10-31 05:00:00+00:00,97.0,110.0,0.78,1.27,12.6,47.59359,-54.27349
2017-10-31 05:10:00+00:00,256.0,251.0,0.34,1.2,12.6,47.59359,-54.27349
2017-10-31 05:20:00+00:00,230.0,218.0,3.72,4.89,12.6,47.59359,-54.27349
2017-10-31 05:30:00+00:00,215.0,212.0,4.76,6.02,12.6,47.59359,-54.27349
2017-10-31 05:40:00+00:00,199.0,209.0,2.4,3.24,12.6,47.59359,-54.27349
2017-10-31 05:50:00+00:00,169.0,168.0,1.82,2.7,12.6,47.59359,-54.27349
2017-10-31 06:00:00+00:00,193.0,192.0,6.73,8.09,12.6,47.59359,-54.27349
2017-10-31 06:10:00+00:00,198.0,198.0,9.33,10.82,12.6,47.59359,-54.27349
2017-10-31 06:20:00+00:00,215.0,211.0,6.2,8.63,12.6,47.59359,-54.27349
2017-10-31 06:30:00+00:00,204.0,208.0,6.33,8.68,12.6,47.59359,-54.27349
2017-10-31 06:40:00+00:00,215.0,195.0,4.65,5.45,12.6,47.59359,-54.27349
2017-10-31 06:50:00+00:00,210.0,205.0,7.05,8.5,12.6,47.59359,-54.27349
2017-10-31 07:00:00+00:00,190.0,193.0,7.21,9.03,12.6,47.59359,-54.27349
2017-10-31 07:10:00+00:00,195.0,197.0,6.32,7.11,12.6,47.59359,-54.27349
2017-10-31 07:20:00+00:00,180.0,182.0,2.32,2.82,12.6,47.59359,-54.27349
2017-10-31 07:30:00+00:00,209.0,212.0,4.06,5.41,12.6,47.59359,-54.27349
2017-10-31 07:40:00+00:00,213.0,192.0,5.04,6.55,12.6,47.59359,-54.27349
2017-10-31 07:50:00+00:00,189.0,191.0,10.51,13.03,12.6,47.59359,-54.27349
2017-10-31 08:00:00+00:00,193.0,189.0,13.22,16.24,12.6,47.59359,-54.27349
2017-10-31 08:10:00+00:00,194.0,194.0,15.58,18.74,12.5,47.59359,-54.27349
2017-10-31 08:20:00+00:00,196.0,191.0,14.39,16.59,12.6,47.59359,-54.27349
2017-10-31 08:30:00+00:00,193.0,200.0,15.69,18.6,12.6,47.59359,-54.27349
2017-10-31 08:40:00+00:00,194.0,194.0,15.53,18.52,12.6,47.59359,-54.27349
2017-10-31 08:50:00+00:00,200.0,201.0,15.41,17.5,12.6,47.59359,-54.27349
2017-10-31 09:00:00+00:00,195.0,194.0,16.46,19.73,12.6,47.59359,-54.27349
2017-10-31 09:10:00+00:00,195.0,192.0,16.7,19.7,12.5,47.59359,-54.27349
2017-10-31 09:20:00+00:00,198.0,200.0,15.92,19.85,12.6,47.59359,-54.27349
2017-10-31 09:30:00+00:00,208.0,201.0,16.37,21.49,12.6,47.59359,-54.27349
2017-10-31 09:40:00+00:00,215.0,209.0,14.52,17.22,12.6,47.59359,-54.27349
2017-10-31 09:50:00+00:00,215.0,215.0,15.88,18.97,12.6,47.59359,-54.27349
2017-10-31 10:00:00+00:00,214.0,211.0,16.33,18.5,12.6,47.59359,-54.27349
2017-10-31 10:10:00+00:00,213.0,208.0,15.63,18.88,12.5,47.59359,-54.27349
2017-10-31 10:20:00+00:00,206.0,206.0,14.15,16.05,12.6,47.59359,-54.27349
2017-10-31 10:30:00+00:00,196.0,196.0,14.11,17.4,12.6,47.59359,-54.27349
2017-10-31 10:40:00+00:00,206.0,210.0,16.44,20.46,12.6,47.59359,-54.27349
2017-10-31 10:50:00+00:00,205.0,205.0,17.34,20.4,12.6,47.59359,-54.27349
2017-10-31 11:00:00+00:00,202.0,203.0,17.88,21.44,12.6,47.59359,-54.27349
2017-10-31 11:10:00+00:00,200.0,203.0,16.04,18.32,12.5,47.59359,-54.27349
2017-10-31 11:20:00+00:00,202.0,201.0,14.99,17.33,12.6,47.59359,-54.27349
2017-10-31 11:30:00+00:00,207.0,205.0,18.03,21.91,12.6,47.59359,-54.27349
2017-10-31 11:40:00+00:00,209.0,207.0,15.61,18.75,12.6,47.59359,-54.27349
2017-10-31 11:50:00+00:00,215.0,216.0,15.97,18.19,12.6,47.59359,-54.27349
2017-10-31 12:00:00+00:00,217.0,221.0,15.14,17.32,12.6,47.59359,-54.27349
2017-10-31 12:10:00+00:00,230.0,231.0,13.21,16.53,12.5,47.59359,-54.27349
2017-10-31 12:20:00+00:00,227.0,228.0,15.5,18.48,12.6,47.59359,-54.27349
2017-10-31 12:30:00+00:00,232.0,234.0,13.72,16.24,12.6,47.59359,-54.27349
2017-10-31 12:40:00+00:00,225.0,231.0,15.82,18.38,12.6,47.59359,-54.27349
2017-10-31 12:50:00+00:00,225.0,225.0,15.49,19.23,12.7,47.59359,-54.27349
2017-10-31 13:00:00+00:00,227.0,226.0,16.77,19.97,12.8,47.59359,-54.27349
2017-10-31 13:10:00+00:00,230.0,230.0,14.3,16.75,12.7,47.59359,-54.27349
2017-10-31 13:20:00+00:00,230.0,236.0,12.69,14.34,12.9,47.59359,-54.27349
2017-10-31 13:30:00+00:00,230.0,234.0,13.4,15.85,13.0,47.59359,-54.27349
2017-10-31 13:40:00+00:00,228.0,232.0,12.25,14.14,13.1,47.59359,-54.27349
2017-10-31 13:50:00+00:00,228.0,226.0,11.83,13.02,13.2,47.59359,-54.27349
2017-10-31 14:00:00+00:00,228.0,222.0,11.3,13.6,13.2,47.59359,-54.27349
2017-10-31 14:10:00+00:00,226.0,227.0,10.34,11.23,13.1,47.59359,-54.27349
2017-10-31 14:20:00+00:00,229.0,223.0,9.11,10.26,13.4,47.59359,-54.27349
2017-10-31 14:30:00+00:00,225.0,229.0,9.1,10.36,13.5,47.59359,-54.27349
2017-10-31 14:40:00+00:00,223.0,223.0,8.7,9.91,14.2,47.59359,-54.27349
2017-10-31 14:50:00+00:00,223.0,233.0,8.27,10.34,13.8,47.59359,-54.27349
2017-10-31 15:00:00+00:00,220.0,221.0,8.26,9.1,13.8,47.59359,-54.27349
2017-10-31 15:10:00+00:00,219.0,219.0,8.28,9.35,13.5,47.59359,-54.27349
2017-10-31 15:20:00+00:00,220.0,216.0,8.61,9.78,13.7,47.59359,-54.27349
2017-10-31 15:30:00+00:00,219.0,220.0,8.31,9.66,13.7,47.59359,-54.27349
2017-10-31 15:40:00+00:00,219.0,218.0,8.92,10.28,13.8,47.59359,-54.27349
2017-10-31 15:50:00+00:00,221.0,222.0,8.93,9.79,14.0,47.59359,-54.27349
2017-10-31 16:00:00+00:00,222.0,222.0,8.78,9.65,13.8,47.59359,-54.27349
2017-10-31 16:10:00+00:00,222.0,221.0,8.63,9.64,13.6,47.59359,-54.27349
2017-10-31 16:20:00+00:00,219.0,226.0,7.93,9.07,13.9,47.59359,-54.27349
2017-10-31 16:30:00+00:00,221.0,229.0,8.74,9.66,13.9,47.59359,-54.27349
2017-10-31 16:40:00+00:00,225.0,226.0,7.6,8.64,13.9,47.59359,-54.27349
2017-10-31 16:50:00+00:00,221.0,222.0,8.37,9.92,14.1,47.59359,-54.27349
2017-10-31 17:00:00+00:00,218.0,225.0,7.48,8.85,13.7,47.59359,-54.27349
2017-10-31 17:10:00+00:00,215.0,218.0,7.14,8.17,13.8,47.59359,-54.27349
2017-10-31 17:20:00+00:00,217.0,218.0,8.01,8.8,13.8,47.59359,-54.27349
2017-10-31 17:30:00+00:00,219.0,219.0,8.32,9.35,13.8,47.59359,-54.27349
2017-10-31 17:40:00+00:00,220.0,221.0,8.32,9.33,13.8,47.59359,-54.27349
2017-10-31 17:50:00+00:00,224.0,233.0,8.23,10.69,14.0,47.59359,-54.27349
2017-10-31 18:00:00+00:00,221.0,217.0,8.38,9.67,13.8,47.59359,-54.27349
2017-10-31 18:10:00+00:00,218.0,217.0,8.9,9.86,13.7,47.59359,-54.27349
2017-10-31 18:20:00+00:00,221.0,223.0,8.3,9.16,13.8,47.59359,-54.27349
2017-10-31 18:30:00+00:00,220.0,223.0,8.78,10.06,13.7,47.59359,-54.27349
2017-10-31 18:40:00+00:00,219.0,222.0,9.13,11.1,13.6,47.59359,-54.27349
2017-10-31 18:50:00+00:00,220.0,225.0,9.41,10.6,13.6,47.59359,-54.27349
2017-10-31 19:00:00+00:00,219.0,222.0,9.41,10.8,13.4,47.59359,-54.27349
2017-10-31 19:10:00+00:00,222.0,224.0,9.25,10.25,13.3,47.59359,-54.27349
2017-10-31 19:20:00+00:00,223.0,225.0,8.78,9.93,13.3,47.59359,-54.27349
2017-10-31 19:30:00+00:00,223.0,223.0,8.45,9.71,13.4,47.59359,-54.27349
2017-10-31 19:40:00+00:00,222.0,230.0,8.95,10.02,13.7,47.59359,-54.27349
2017-10-31 19:50:00+00:00,224.0,232.0,9.43,10.53,13.7,47.59359,-54.27349
2017-10-31 20:00:00+00:00,224.0,227.0,9.2,11.02,13.5,47.59359,-54.27349
2017-10-31 20:10:00+00:00,228.0,224.0,9.43,11.18,13.3,47.59359,-54.27349
2017-10-31 20:20:00+00:00,229.0,230.0,9.0,10.3,13.2,47.59359,-54.27349
2017-10-31 20:30:00+00:00,228.0,233.0,8.82,9.91,13.1,47.59359,-54.27349
2017-10-31 20:40:00+00:00,227.0,232.0,8.61,9.71,13.0,47.59359,-54.27349
2017-10-31 20:50:00+00:00,229.0,229.0,8.86,9.92,13.0,47.59359,-54.27349
2017-10-31 21:00:00+00:00,230.0,240.0,9.89,11.63,13.0,47.59359,-54.27349
2017-10-31 21:10:00+00:00,229.0,229.0,9.08,10.92,12.8,47.59359,-54.27349
2017-10-31 21:20:00+00:00,227.0,225.0,9.03,10.34,12.9,47.59359,-54.27349
2017-10-31 21:30:00+00:00,226.0,231.0,9.36,10.73,12.8,47.59359,-54.27349
2017-10-31 21:40:00+00:00,230.0,233.0,9.54,11.0,12.9,47.59359,-54.27349
2017-10-31 21:50:00+00:00,229.0,230.0,9.85,11.18,12.9,47.59359,-54.27349
2017-10-31 22:00:00+00:00,230.0,233.0,9.13,10.45,12.8,47.59359,-54.27349
2017-10-31 22:10:00+00:00,231.0,231.0,9.34,10.69,12.7,47.59359,-54.27349
2017-10-31 22:20:00+00:00,232.0,234.0,9.95,11.32,12.8,47.59359,-54.27349
2017-10-31 22:30:00+00:00,229.0,233.0,9.2,10.34,12.8,47.59359,-54.27349
2017-10-31 22:40:00+00:00,229.0,231.0,8.94,10.18,12.8,47.59359,-54.27349
2017-10-31 22:50:00+00:00,231.0,236.0,8.14,10.28,12.8,47.59359,-54.27349
2017-10-31 23:00:00+00:00,232.0,234.0,7.69,9.02,12.7,47.59359,-54.27349
2017-10-31 23:10:00+00:00,236.0,236.0,7.43,8.74,12.6,47.59359,-54.27349
2017-10-31 23:20:00+00:00,240.0,246.0,8.21,10.28,12.7,47.59359,-54.27349
2017-10-31 23:30:00+00:00,231.0,233.0,8.13,9.32,12.7,47.59359,-54.27349
2017-10-31 23:40:00+00:00,230.0,233.0,8.76,10.09,12.8,47.59359,-54.27349
2017-10-31 23:50:00+00:00,230.0,237.0,8.93,10.33,12.8,47.59359,-54.27349
